Weather History for Mayfld Grav Cnty AP, Mayfield, KY

Change the Weather History Date:

Saturday, April 12, 2014

  Actual Average (KPAH) Record (KPAH)
Temperature  
Mean Temperature 65 °F 57 °F  
Max Temperature 77 °F 68 °F 84 °F (1977)
Min Temperature 53 °F 45 °F 26 °F (1990)
Degree Days  
Heating Degree Days 0 9  
Month to date heating degree days 127  
Since 1 July heating degree days 3946  
Cooling Degree Days 0 1  
Month to date cooling degree days 12  
Year to date cooling degree days 19  
Growing Degree Days 15 (Base 50)    
Moisture  
Dew Point 54 °F    
Average Humidity 66    
Maximum Humidity 94    
Minimum Humidity 44    
Precipitation  
Precipitation 0.00 in 0.15 in 1.88 in (1966)
Month to date precipitation 1.74  
Year to date precipitation 13.26  
Snow  
Snow 0.00 in 0.00 in T in (2005)
Month to date snowfall 0.0  
Since 1 July snowfall 9.1  
Snow Depth -    
Sea Level Pressure  
Sea Level Pressure 30.01 in    
Wind  
Wind Speed 9 mph (South)    
Max Wind Speed 18 mph    
Max Gust Speed 29 mph    
Visibility 10 miles    
Events      
T = Trace of Precipitation, MM = Missing Value Source: NWS Daily Summary

Daily Weather History Graph

Daily Weather History Graph

Search for Another Location

Airport:

Trip Planner

Search our weather history database for the weather conditions in past years. The results will help you decide how hot, cold, wet, or windy it might be!

Date:

Astronomy

Apr. 12, 2014 Rise Set
Actual Time 6:24 AM CDT 7:26 PM CDT
Civil Twilight 5:57 AM CDT 7:52 PM CDT
Nautical Twilight 5:26 AM CDT 8:24 PM CDT
Astronomical Twilight 4:53 AM CDT 8:57 PM CDT
Moon 5:07 PM CDT (4/12) 4:47 AM CDT (4/12)
Length of Visible Light 13h 54m
Length of Day
13h 01m
Waxing Gibbous, 93% of the Moon is Illuminated
Apr 12
Waxing Gibbous
Apr 15
Full
Apr 22
Last Quarter
Apr 29
New
May 6
First Quarter

Hourly Weather History & Observations

Time (CDT) Temp. Dew Point Humidity Pressure Visibility Wind Dir Wind Speed Gust Speed Precip Events Conditions
12:15 AM 57.2 °F 55.4 °F 94% 30.10 in 10.0 mi SSE 5.8 mph - N/A   Clear
12:35 AM 55.4 °F 53.6 °F 94% 30.10 in 10.0 mi SSE 6.9 mph - N/A   Clear
12:55 AM 57.2 °F 53.6 °F 88% 30.10 in 10.0 mi SE 5.8 mph - N/A   Clear
1:15 AM 59.0 °F 53.6 °F 82% 30.10 in 10.0 mi SSE 5.8 mph - N/A   Clear
1:35 AM 57.2 °F 53.6 °F 88% 30.10 in 10.0 mi SSE 5.8 mph - N/A   Clear
1:55 AM 59.0 °F 51.8 °F 77% 30.09 in 10.0 mi SSE 8.1 mph - N/A   Clear
2:15 AM 57.2 °F 51.8 °F 82% 30.09 in 10.0 mi SSE 4.6 mph - N/A   Clear
2:35 AM 57.2 °F 51.8 °F 82% 30.09 in 10.0 mi SSE 4.6 mph - N/A   Clear
2:55 AM 55.4 °F 51.8 °F 88% 30.09 in 10.0 mi SSE 4.6 mph - N/A   Clear
3:15 AM 53.6 °F 51.8 °F 94% 30.09 in 10.0 mi South 4.6 mph - N/A   Clear
3:35 AM 53.6 °F 51.8 °F 94% 30.08 in 10.0 mi SSE 4.6 mph - N/A   Clear
3:55 AM 53.6 °F 51.8 °F 94% 30.08 in 10.0 mi South 4.6 mph - N/A   Clear
4:15 AM 55.4 °F 51.8 °F 88% 30.08 in 10.0 mi South 4.6 mph - N/A   Clear
4:35 AM 55.4 °F 51.8 °F 88% 30.08 in 10.0 mi South 5.8 mph - N/A   Scattered Clouds
4:55 AM 55.4 °F 51.8 °F 88% 30.08 in 10.0 mi South 5.8 mph - N/A   Scattered Clouds
5:15 AM 55.4 °F 51.8 °F 88% 30.08 in 10.0 mi South 5.8 mph - N/A   Clear
5:35 AM 55.4 °F 51.8 °F 88% 30.08 in 10.0 mi South 5.8 mph - N/A   Clear
5:55 AM 55.4 °F 51.8 °F 88% 30.08 in 10.0 mi South 5.8 mph - N/A   Clear
6:15 AM 55.4 °F 51.8 °F 88% 30.08 in 10.0 mi South 5.8 mph - N/A   Clear
6:35 AM 55.4 °F 51.8 °F 88% 30.07 in 10.0 mi South 5.8 mph - N/A   Clear
6:55 AM 55.4 °F 51.8 °F 88% 30.07 in 10.0 mi South 5.8 mph - N/A   Clear
7:15 AM 57.2 °F 51.8 °F 82% 30.08 in 10.0 mi South 6.9 mph - N/A   Clear
7:35 AM 59.0 °F 51.8 °F 77% 30.08 in 10.0 mi South 6.9 mph - N/A   Clear
8:15 AM 60.8 °F 53.6 °F 77% 30.09 in 10.0 mi South 8.1 mph - N/A   Clear
8:35 AM 62.6 °F 53.6 °F 72% 30.09 in 10.0 mi South 5.8 mph - N/A   Clear
8:55 AM 64.4 °F 55.4 °F 73% 30.09 in 10.0 mi SSW 11.5 mph - N/A   Clear
9:15 AM 64.4 °F 55.4 °F 73% 30.09 in 10.0 mi South 8.1 mph - N/A   Clear
9:35 AM 66.2 °F 55.4 °F 68% 30.09 in 10.0 mi SSW 10.4 mph - N/A   Clear
9:55 AM 68.0 °F 55.4 °F 64% 30.09 in 10.0 mi SSW 9.2 mph - N/A   Clear
10:15 AM 68.0 °F 55.4 °F 64% 30.09 in 10.0 mi SSW 10.4 mph 13.8 mph N/A   Clear
10:35 AM 69.8 °F 57.2 °F 64% 30.09 in 10.0 mi SSW 12.7 mph - N/A   Clear
10:55 AM 71.6 °F 57.2 °F 60% 30.09 in 10.0 mi SW 10.4 mph 18.4 mph N/A   Clear
11:15 AM 71.6 °F 57.2 °F 60% 30.08 in 10.0 mi SW 12.7 mph 20.7 mph N/A   Clear
11:35 AM 71.6 °F 55.4 °F 57% 30.08 in 10.0 mi SSW 18.4 mph 24.2 mph N/A   Scattered Clouds
11:55 AM 71.6 °F 55.4 °F 57% 30.07 in 10.0 mi SW 13.8 mph 25.3 mph N/A   Mostly Cloudy
12:15 PM 71.6 °F 55.4 °F 57% 30.06 in 10.0 mi SW 18.4 mph 25.3 mph N/A   Mostly Cloudy
12:35 PM 73.4 °F 55.4 °F 53% 30.05 in 10.0 mi SSW 18.4 mph 28.8 mph N/A   Mostly Cloudy
12:55 PM 73.4 °F 57.2 °F 57% 30.04 in 10.0 mi SSW 16.1 mph 21.9 mph N/A   Scattered Clouds
1:15 PM 73.4 °F 55.4 °F 53% 30.03 in 10.0 mi SSW 18.4 mph 23.0 mph N/A   Mostly Cloudy
1:35 PM 73.4 °F 57.2 °F 57% 30.02 in 10.0 mi SSW 12.7 mph 19.6 mph N/A   Mostly Cloudy
1:55 PM 75.2 °F 55.4 °F 50% 30.01 in 10.0 mi SSW 16.1 mph 27.6 mph N/A   Scattered Clouds
2:15 PM 75.2 °F 55.4 °F 50% 30.00 in 10.0 mi SSW 17.3 mph 23.0 mph N/A   Mostly Cloudy
2:35 PM 77.0 °F 55.4 °F 47% 29.99 in 10.0 mi SSW 16.1 mph 27.6 mph N/A   Mostly Cloudy
2:55 PM 77.0 °F 55.4 °F 47% 29.98 in 10.0 mi SSW 12.7 mph 23.0 mph N/A   Mostly Cloudy
3:15 PM 77.0 °F 57.2 °F 50% 29.96 in 10.0 mi SW 16.1 mph 21.9 mph N/A   Mostly Cloudy
3:35 PM 77.0 °F 55.4 °F 47% 29.96 in 10.0 mi SSW 16.1 mph 24.2 mph N/A   Scattered Clouds
3:55 PM 77.0 °F 55.4 °F 47% 29.94 in 10.0 mi SW 15.0 mph 21.9 mph N/A   Scattered Clouds
4:15 PM 77.0 °F 55.4 °F 47% 29.94 in 10.0 mi SSW 15.0 mph 24.2 mph N/A   Clear
4:35 PM 77.0 °F 55.4 °F 47% 29.93 in 10.0 mi SSW 16.1 mph 21.9 mph N/A   Clear
4:55 PM 77.0 °F 55.4 °F 47% 29.93 in 10.0 mi South 11.5 mph 23.0 mph N/A   Clear
5:15 PM 77.0 °F 55.4 °F 47% 29.92 in 10.0 mi SSW 13.8 mph 24.2 mph N/A   Clear
5:35 PM 77.0 °F 55.4 °F 47% 29.91 in 10.0 mi SSW 13.8 mph 20.7 mph N/A   Clear
5:55 PM 77.0 °F 55.4 °F 47% 29.91 in 10.0 mi SSW 12.7 mph 24.2 mph N/A   Clear
6:15 PM 77.0 °F 55.4 °F 47% 29.90 in 10.0 mi SSW 11.5 mph 20.7 mph N/A   Clear
6:35 PM 77.0 °F 53.6 °F 44% 29.90 in 10.0 mi South 11.5 mph 23.0 mph N/A   Clear
6:55 PM 77.0 °F 53.6 °F 44% 29.90 in 10.0 mi South 10.4 mph 24.2 mph N/A   Clear
7:15 PM 75.2 °F 53.6 °F 47% 29.90 in 10.0 mi SSW 11.5 mph 19.6 mph N/A   Clear
7:35 PM 73.4 °F 53.6 °F 50% 29.90 in 10.0 mi South 9.2 mph - N/A   Clear
7:55 PM 71.6 °F 53.6 °F 53% 29.90 in 10.0 mi South 11.5 mph 17.3 mph N/A   Clear
8:15 PM 71.6 °F 53.6 °F 53% 29.90 in 10.0 mi South 11.5 mph - N/A   Clear
8:35 PM 71.6 °F 53.6 °F 53% 29.92 in 10.0 mi South 9.2 mph 17.3 mph N/A   Clear
8:55 PM 71.6 °F 53.6 °F 53% 29.92 in 10.0 mi South 10.4 mph 17.3 mph N/A   Clear
9:15 PM 69.8 °F 51.8 °F 53% 29.93 in 10.0 mi South 12.7 mph 19.6 mph N/A   Clear
9:35 PM 69.8 °F 53.6 °F 56% 29.92 in 10.0 mi South 16.1 mph 21.9 mph N/A   Clear
9:55 PM 69.8 °F 55.4 °F 60% 29.93 in 10.0 mi South 11.5 mph 19.6 mph N/A   Clear
10:15 PM 69.8 °F 55.4 °F 60% 29.93 in 10.0 mi South 13.8 mph 23.0 mph N/A   Clear
10:35 PM 68.0 °F 55.4 °F 64% 29.92 in 10.0 mi South 12.7 mph 18.4 mph N/A   Clear
10:55 PM 68.0 °F 55.4 °F 64% 29.92 in 10.0 mi South 9.2 mph - N/A   Clear
11:15 PM 68.0 °F 55.4 °F 64% 29.92 in 10.0 mi South 11.5 mph 19.6 mph N/A   Clear
11:35 PM 68.0 °F 55.4 °F 64% 29.91 in 10.0 mi South 11.5 mph - N/A   Clear
11:55 PM 68.0 °F 55.4 °F 64% 29.91 in 10.0 mi South 9.2 mph 17.3 mph N/A   Clear